Date,TemperatureHighF,TemperatureAvgF,TemperatureLowF,DewpointHighF,DewpointAvgF,DewpointLowF,HumidityHigh,HumidityAvg,HumidityLow,PressureMaxIn,PressureMinIn,WindSpeedMaxMPH,WindSpeedAvgMPH,GustSpeedMaxMPH,PrecipitationSumIn
2013-3-1,30,27,25,27,23,21,93,85,78,30.02,29.86,14,3,14,0.00
2013-3-2,27,25,22,23,21,18,89,85,77,30.01,29.97,14,3,14,0.00
2013-3-3,26,23,21,22,19,16,92,86,78,30.04,29.97,15,2,16,0.01
2013-3-4,34,25,18,22,18,15,91,76,55,30.14,30.04,13,2,13,0.01
2013-3-5,42,29,15,25,20,13,95,71,36,30.12,29.68,13,3,13,0.03
2013-3-6,44,37,31,30,28,24,89,70,53,30.15,29.68,18,3,19,0.00
2013-3-7,37,33,28,32,29,24,93,86,77,30.35,30.14,12,2,14,0.00
2013-3-8,36,29,22,30,26,20,93,86,71,30.45,30.34,10,1,10,0.00
2013-3-9,52,37,18,33,26,17,96,70,45,30.45,30.11,12,2,12,0.00
2013-3-10,68,57,46,38,33,28,61,42,28,30.11,29.84,21,3,21,0.00
2013-3-11,60,52,41,48,41,34,95,68,38,29.85,29.53,28,4,28,0.68
2013-3-12,41,36,33,37,30,25,89,79,70,29.96,29.70,19,4,19,0.00
2013-3-13,33,29,26,28,23,15,90,77,57,30.15,29.89,22,4,27,0.01
2013-3-14,37,29,23,21,19,15,86,66,48,30.23,30.11,22,4,22,0.00
2013-3-15,43,34,24,34,28,21,95,79,68,30.11,29.84,17,2,17,0.03
2013-3-16,36,32,28,34,30,25,96,93,87,30.01,29.66,11,2,12,0.19
2013-3-17,34,30,26,26,22,18,90,75,57,30.22,30.01,12,2,13,0.02
2013-3-18,43,33,26,43,30,18,98,87,72,30.17,29.61,19,6,23,0.13
2013-3-19,42,31,26,39,23,17,92,72,58,29.94,29.68,33,6,33,0.01
2013-3-20,30,27,21,22,19,14,91,73,61,29.96,29.88,20,4,20,0.00
2013-3-21,28,22,15,24,17,11,92,81,69,29.92,29.87,16,3,16,0.00
2013-3-22,34,27,23,24,22,20,92,82,63,30.02,29.91,13,3,16,0.01
2013-3-23,40,28,15,28,22,13,95,77,54,30.08,30.00,12,1,14,0.01
2013-3-24,35,29,21,24,22,19,94,76,57,30.03,29.51,16,3,16,0.00
2013-3-25,35,33,31,34,30,24,95,91,67,29.81,29.43,17,3,17,0.21
2013-3-26,39,34,31,33,31,30,95,89,70,30.09,29.81,15,2,15,0.02
2013-3-27,41,36,31,31,29,26,95,77,54,30.15,30.07,22,4,22,0.05
2013-3-28,43,37,33,31,30,27,88,74,61,30.26,30.15,14,2,15,0.00
2013-3-29,49,40,28,31,27,22,88,64,36,30.27,30.21,16,2,18,0.00
2013-3-30,56,40,22,30,24,20,95,59,28,30.27,30.02,16,1,19,0.00
2013-3-31,51,45,36,45,35,24,86,69,47,30.01,29.69,18,2,18,0.01